Weather History for KORB - March, 2014

Change the Weather History Date:

Saturday, March 22, 2014

  Actual Average Record
Temperature  
Mean Temperature 2 °F -  
Max Temperature 12 °F 35 °F 64 °F (2012)
Min Temperature -9 °F 14 °F -9 °F (2014)
Degree Days  
Heating Degree Days 64    
Moisture  
Dew Point -7 °F    
Average Humidity 67    
Maximum Humidity 84    
Minimum Humidity 48    
Precipitation  
Precipitation 0.00 in - - ()
Sea Level Pressure  
Sea Level Pressure 30.28 in    
Wind  
Wind Speed 9 mph (WNW)    
Max Wind Speed 15 mph    
Max Gust Speed 18 mph    
Visibility 10 miles    
Events      
Averages and records for this station are not official NWS values.
T = Trace of Precipitation, MM = Missing Value Source: NWS Daily Summary

Daily Weather History Graph

Daily Weather History Graph

Search for Another Location

Airport or City:

Trip Planner

Search our weather history database for the weather conditions in past years. The results will help you decide how hot, cold, wet, or windy it might be!

Date:

Astronomy

Mar. 22, 2014 Rise Set
Actual Time 7:10 AM CDT 7:27 PM CDT
Civil Twilight 6:39 AM CDT 7:58 PM CDT
Nautical Twilight 6:02 AM CDT 8:34 PM CDT
Astronomical Twilight 5:24 AM CDT 9:12 PM CDT
Moon 1:08 AM CDT (3/22) 10:32 AM CDT (3/22)
Length of Visible Light 13h 19m
Length of Day
12h 17m
Waning Gibbous, 65% of the Moon is Illuminated
Mar 22
Waning Gibbous
Mar 23
Last Quarter
Mar 30
New
Apr 7
First Quarter
Apr 15
Full

Hourly Weather History & Observations

Time (CDT) Temp. Windchill Dew Point Humidity Pressure Visibility Wind Dir Wind Speed Gust Speed Precip Events Conditions
12:13 AM 6.8 °F -6.9 °F -0.4 °F 72% 30.12 in 10.0 mi NW 9.2 mph 16.1 mph N/A   Clear
12:33 AM 5.0 °F -12.3 °F -2.2 °F 72% 30.13 in 10.0 mi WNW 13.8 mph 17.3 mph N/A   Clear
12:53 AM 3.2 °F -12.2 °F -4.0 °F 72% 30.13 in 10.0 mi WNW 10.4 mph - N/A   Clear
1:13 AM 3.2 °F -12.2 °F -4.0 °F 72% 30.14 in 10.0 mi NW 10.4 mph 17.3 mph N/A   Clear
1:33 AM 1.4 °F -14.5 °F -5.8 °F 72% 30.15 in 10.0 mi NW 10.4 mph - N/A   Clear
1:53 AM 1.4 °F -15.3 °F -5.8 °F 72% 30.15 in 10.0 mi NW 11.5 mph - N/A   Clear
2:13 AM 1.4 °F -16.1 °F -5.8 °F 72% 30.16 in 10.0 mi NW 12.7 mph 17.3 mph N/A   Clear
2:33 AM -0.4 °F -17.6 °F -7.6 °F 72% 30.16 in 10.0 mi NW 11.5 mph - N/A   Clear
2:53 AM -0.4 °F -17.6 °F -7.6 °F 72% 30.17 in 10.0 mi NW 11.5 mph - N/A   Clear
3:13 AM -2.2 °F -18.9 °F -7.6 °F 78% 30.17 in 10.0 mi WNW 10.4 mph - N/A   Clear
3:33 AM -2.2 °F -18.9 °F -9.4 °F 71% 30.18 in 10.0 mi NW 10.4 mph - N/A   Clear
3:53 AM -2.2 °F -18.9 °F -9.4 °F 71% 30.18 in 10.0 mi NW 10.4 mph - N/A   Clear
4:13 AM -4.0 °F -21.2 °F -9.4 °F 78% 30.19 in 10.0 mi NW 10.4 mph - N/A   Clear
4:33 AM -4.0 °F -20.2 °F -9.4 °F 78% 30.19 in 10.0 mi WNW 9.2 mph - N/A   Clear
4:53 AM -4.0 °F -20.2 °F -9.4 °F 78% 30.19 in 10.0 mi NW 9.2 mph - N/A   Clear
5:13 AM -5.8 °F -21.2 °F -11.2 °F 77% 30.20 in 10.0 mi NW 8.1 mph - N/A   Clear
5:33 AM -5.8 °F -21.2 °F -11.2 °F 77% 30.21 in 10.0 mi WNW 8.1 mph - N/A   Clear
5:53 AM -7.6 °F -22.1 °F -11.2 °F 84% 30.22 in 10.0 mi WNW 6.9 mph - N/A   Clear
6:13 AM -7.6 °F -20.6 °F -13.0 °F 77% 30.22 in 10.0 mi WNW 5.8 mph - N/A   Clear
6:33 AM -7.6 °F -22.1 °F -13.0 °F 77% 30.24 in 10.0 mi NW 6.9 mph - N/A   Clear
6:53 AM -9.4 °F -22.7 °F -14.8 °F 77% 30.24 in 10.0 mi WNW 5.8 mph - N/A   Clear
7:13 AM -9.4 °F -24.3 °F -14.8 °F 77% 30.25 in 10.0 mi WNW 6.9 mph - N/A   Clear
7:33 AM -9.4 °F -24.3 °F -14.8 °F 77% 30.26 in 10.0 mi NW 6.9 mph - N/A   Clear
7:53 AM -9.4 °F -26.8 °F -14.8 °F 77% 30.27 in 10.0 mi NW 9.2 mph - N/A   Clear
8:13 AM -9.4 °F -26.8 °F -14.8 °F 77% 30.27 in 10.0 mi NW 9.2 mph - N/A   Clear
8:33 AM -7.6 °F -24.6 °F -13.0 °F 77% 30.28 in 10.0 mi WNW 9.2 mph - N/A   Clear
8:53 AM -5.8 °F -22.4 °F -13.0 °F 71% 30.29 in 10.0 mi WNW 9.2 mph - N/A   Clear
9:13 AM -5.8 °F -21.2 °F -13.0 °F 71% 30.29 in 10.0 mi NW 8.1 mph - N/A   Clear
9:33 AM -4.0 °F -20.2 °F -11.2 °F 71% 30.30 in 10.0 mi WNW 9.2 mph - N/A   Clear
9:53 AM -2.2 °F -18.0 °F -11.2 °F 66% 30.31 in 10.0 mi WNW 9.2 mph - N/A   Clear
10:13 AM -0.4 °F -15.7 °F -9.4 °F 66% 30.31 in 10.0 mi WNW 9.2 mph - N/A   Clear
10:33 AM -0.4 °F -16.7 °F -9.4 °F 66% 30.31 in 10.0 mi NW 10.4 mph - N/A   Clear
10:53 AM 1.4 °F -14.5 °F -7.6 °F 66% 30.32 in 10.0 mi WNW 10.4 mph - N/A   Clear
11:13 AM 3.2 °F -11.3 °F -7.6 °F 61% 30.32 in 10.0 mi WNW 9.2 mph - N/A   Clear
11:33 AM 5.0 °F -10.8 °F -5.8 °F 61% 30.32 in 10.0 mi NW 11.5 mph - N/A   Clear
11:53 AM 6.8 °F -10.7 °F -5.8 °F 56% 30.32 in 7.0 mi WNW 15.0 mph - N/A   Clear
12:13 PM 6.8 °F -9.3 °F -5.8 °F 56% 30.33 in 10.0 mi WNW 12.7 mph - N/A   Clear
12:33 PM 6.8 °F -10.0 °F -5.8 °F 56% 30.33 in 10.0 mi WNW 13.8 mph 18.4 mph N/A   Scattered Clouds
12:53 PM 6.8 °F -9.3 °F -4.0 °F 61% 30.33 in 10.0 mi West 12.7 mph - N/A   Scattered Clouds
1:13 PM 8.6 °F -5.5 °F -4.0 °F 57% 30.33 in 10.0 mi WNW 10.4 mph - N/A   Scattered Clouds
1:33 PM 8.6 °F -7.0 °F -2.2 °F 62% 30.33 in 10.0 mi WNW 12.7 mph 17.3 mph N/A   Scattered Clouds
1:53 PM 8.6 °F -5.5 °F -4.0 °F 57% 30.33 in 10.0 mi WNW 10.4 mph 17.3 mph N/A   Scattered Clouds
2:13 PM 8.6 °F -6.3 °F -2.2 °F 62% 30.32 in 10.0 mi WNW 11.5 mph 18.4 mph N/A   Scattered Clouds
2:33 PM 8.6 °F -7.7 °F -2.2 °F 62% 30.32 in 10.0 mi WNW 13.8 mph - N/A   Scattered Clouds
2:53 PM 10.4 °F -4.8 °F -2.2 °F 57% 30.32 in 10.0 mi WNW 12.7 mph 17.3 mph N/A   Scattered Clouds
3:13 PM 10.4 °F -2.4 °F -2.2 °F 57% 30.32 in 10.0 mi WNW 9.2 mph - N/A   Scattered Clouds
3:33 PM 10.4 °F -3.3 °F -2.2 °F 57% 30.32 in 10.0 mi WNW 10.4 mph - N/A   Scattered Clouds
3:53 PM 10.4 °F -4.1 °F -2.2 °F 57% 30.32 in 10.0 mi WNW 11.5 mph - N/A   Scattered Clouds
4:13 PM 10.4 °F -3.3 °F -2.2 °F 57% 30.32 in 10.0 mi WNW 10.4 mph - N/A   Clear
4:33 PM 10.4 °F -4.1 °F -2.2 °F 57% 30.32 in 10.0 mi WNW 11.5 mph - N/A   Clear
4:53 PM 10.4 °F -4.8 °F -4.0 °F 52% 30.32 in 10.0 mi WNW 12.7 mph - N/A   Clear
5:13 PM 12.2 °F -1.8 °F -4.0 °F 48% 30.32 in 10.0 mi WNW 11.5 mph - N/A   Clear
5:33 PM 10.4 °F -4.8 °F -4.0 °F 52% 30.32 in 10.0 mi WNW 12.7 mph - N/A   Clear
5:53 PM 10.4 °F -3.3 °F -5.8 °F 48% 30.33 in 10.0 mi WNW 10.4 mph - N/A   Clear
6:13 PM 10.4 °F -3.3 °F -5.8 °F 48% 30.33 in 10.0 mi WNW 10.4 mph - N/A   Clear
6:33 PM 10.4 °F -3.3 °F -5.8 °F 48% 30.33 in 10.0 mi WNW 10.4 mph - N/A   Clear
6:53 PM 8.6 °F -4.7 °F -5.8 °F 52% 30.33 in 10.0 mi WNW 9.2 mph - N/A   Clear
7:13 PM 8.6 °F -1.3 °F -5.8 °F 52% 30.32 in 10.0 mi NW 5.8 mph - N/A   Clear
7:33 PM 6.8 °F -0.1 °F -4.0 °F 61% 30.33 in 10.0 mi NW 3.5 mph - N/A   Clear
7:53 PM 5.0 °F -2.1 °F -4.0 °F 66% 30.33 in 10.0 mi NW 3.5 mph - N/A   Clear
8:13 PM 3.2 °F - -2.2 °F 78% 30.33 in 10.0 mi Calm Calm - N/A   Clear
8:33 PM 3.2 °F - -2.2 °F 78% 30.34 in 10.0 mi Calm Calm - N/A   Clear
8:53 PM 1.4 °F - -4.0 °F 78% 30.34 in 10.0 mi Calm Calm - N/A   Clear
9:13 PM 1.4 °F - -4.0 °F 78% 30.35 in 10.0 mi Calm Calm - N/A   Clear
9:33 PM 3.2 °F -6.2 °F -5.8 °F 66% 30.35 in 10.0 mi West 4.6 mph - N/A   Clear
9:53 PM 1.4 °F -8.3 °F -5.8 °F 72% 30.35 in 10.0 mi West 4.6 mph - N/A   Clear
10:13 PM 1.4 °F -8.3 °F -5.8 °F 72% 30.35 in 10.0 mi West 4.6 mph - N/A   Clear
10:33 PM 1.4 °F - -5.8 °F 72% 30.35 in 10.0 mi Calm Calm - N/A   Clear
10:53 PM -0.4 °F - -5.8 °F 78% 30.36 in 10.0 mi Calm Calm - N/A   Clear
11:13 PM -0.4 °F -8.3 °F -5.8 °F 78% 30.36 in 10.0 mi West 3.5 mph - N/A   Clear
11:33 PM -0.4 °F -10.4 °F -7.6 °F 72% 30.36 in 10.0 mi West 4.6 mph - N/A   Clear
11:53 PM -0.4 °F -12.0 °F -7.6 °F 72% 30.37 in 10.0 mi West 5.8 mph - N/A   Clear